Location: ??????????
(54.7560°N, 39.1389°E)
Time: 11:27:31
(UTC+00:00)

Cosmos 405 Rocket - Pass Details

Date: 19 May 2025
Orbit: 414 x 448 km, 81.2° (Epoch: 13 June)

Event Time Altitude Azimuth Distance (km) Brightness Sun altitude
Rises 19:55:06 0° 346° (NNW) 2,476 8.2 -13.1°
Reaches altitude 10° 19:57:12 10° 346° (NNW) 1,593 6.6 -13.2°
Maximum altitude 20:00:41 89° 260° (W) 454 2.3 -13.4°
Enters shadow 20:02:32 25° 168° (SSE) 928 3.4 -13.5°
